• In Slovakia
  • List of Countries
  • For 7 days
  • Water Temperature
  • Satellite Maps
  • Weather Map
  • Weather Widgets
  • user-avatar
    Login

    Hourly Weather Serowe

    Today, 16 October, Tuesday

    Time Temperature Precipitation Wind Pressure Humidity
    00:00 +27°C° 0 mm 1 mps 667 mmHg 22%
    01:00 +26°C° 0 mm 1 mps 667 mmHg 23%
    02:00 +26°C° 0 mm 1 mps 667 mmHg 28%
    03:00 +25°C° 0 mm 2 mps 667 mmHg 29%
    04:00 +24°C° 0 mm 2 mps 666 mmHg 30%
    05:00 +24°C° 0 mm 2 mps 666 mmHg 32%
    06:00 +26°C° 0 mm 2 mps 667 mmHg 31%
    07:00 +27°C° 0 mm 3 mps 668 mmHg 30%
    08:00 +29°C° 0 mm 4 mps 669 mmHg 32%
    09:00 +32°C° 0 mm 4 mps 669 mmHg 28%
    10:00 +33°C° 0 mm 4 mps 669 mmHg 24%
    11:00 +35°C° 0 mm 4 mps 669 mmHg 21%
    12:00 +36°C° 0 mm 3 mps 669 mmHg 19%
    13:00 +36°C° 0 mm 2 mps 668 mmHg 16%
    14:00 +37°C° 0 mm 2 mps 667 mmHg 14%
    15:00 +37°C° 0 mm 2 mps 667 mmHg 14%
    16:00 +37°C° 0 mm 2 mps 667 mmHg 14%
    17:00 +37°C° 0 mm 3 mps 666 mmHg 14%
    18:00 +35°C° 0 mm 3 mps 666 mmHg 16%
    19:00 +34°C° 0 mm 3 mps 666 mmHg 19%
    20:00 +32°C° 0 mm 4 mps 666 mmHg 21%
    21:00 +30°C° 0 mm 4 mps 666 mmHg 25%
    22:00 +29°C° 0 mm 4 mps 666 mmHg 28%
    23:00 +28°C° 0 mm 5 mps 667 mmHg 31%

    Tomorrow, 17 October, Wednesday

    Time Temperature Precipitation Wind Pressure Humidity
    00:00 +28°C° 0 mm 4 mps 666 mmHg 35%
    01:00 +27°C° 0 mm 4 mps 666 mmHg 38%
    02:00 +26°C° 0 mm 4 mps 666 mmHg 41%
    03:00 +26°C° 0 mm 4 mps 666 mmHg 43%
    04:00 +25°C° 0 mm 4 mps 666 mmHg 45%
    05:00 +25°C° 0 mm 4 mps 665 mmHg 46%
    06:00 +26°C° 0 mm 4 mps 666 mmHg 43%
    07:00 +27°C° 0 mm 5 mps 666 mmHg 40%
    08:00 +28°C° 0 mm 6 mps 667 mmHg 38%
    09:00 +30°C° 0 mm 5 mps 667 mmHg 31%
    10:00 +34°C° 0 mm 5 mps 667 mmHg 25%
    11:00 +36°C° 0 mm 5 mps 667 mmHg 19%
    12:00 +37°C° 0 mm 5 mps 667 mmHg 16%
    13:00 +38°C° 0 mm 4 mps 666 mmHg 14%
    14:00 +40°C° 0 mm 4 mps 665 mmHg 11%
    15:00 +40°C° 0 mm 4 mps 665 mmHg 11%
    16:00 +40°C° 0 mm 4 mps 665 mmHg 11%
    17:00 +38°C° 0 mm 4 mps 664 mmHg 11%
    18:00 +37°C° 0 mm 3 mps 665 mmHg 12%
    19:00 +35°C° 0 mm 3 mps 665 mmHg 13%
    20:00 +34°C° 0 mm 3 mps 665 mmHg 14%
    21:00 +33°C° 0 mm 3 mps 665 mmHg 17%
    22:00 +32°C° 0 mm 4 mps 665 mmHg 20%
    23:00 +29°C° 0 mm 4 mps 666 mmHg 22%

    Day after tomorrow, 18 October, Thursday

    Time Temperature Precipitation Wind Pressure Humidity
    00:00 +28°C° 0 mm 5 mps 665 mmHg 33%
    01:00 +27°C° 0 mm 5 mps 665 mmHg 44%
    02:00 +26°C° 0 mm 5 mps 664 mmHg 55%
    03:00 +25°C° 0 mm 5 mps 664 mmHg 60%
    04:00 +23°C° 0 mm 5 mps 664 mmHg 66%
    05:00 +22°C° 0 mm 6 mps 664 mmHg 72%
    06:00 +22°C° 0 mm 6 mps 665 mmHg 70%
    07:00 +22°C° 0 mm 7 mps 666 mmHg 68%
    08:00 +23°C° 0 mm 7 mps 666 mmHg 65%
    09:00 +24°C° 0 mm 7 mps 667 mmHg 59%
    10:00 +27°C° 0 mm 7 mps 667 mmHg 53%
    11:00 +28°C° 0 mm 8 mps 667 mmHg 46%
    12:00 +30°C° 0 mm 7 mps 667 mmHg 42%
    13:00 +32°C° 0 mm 6 mps 666 mmHg 37%
    14:00 +34°C° 0 mm 5 mps 666 mmHg 32%
    15:00 +33°C° 0 mm 5 mps 665 mmHg 32%
    16:00 +33°C° 0 mm 5 mps 665 mmHg 33%
    17:00 +33°C° 0 mm 5 mps 665 mmHg 33%
    18:00 +30°C° 0 mm 6 mps 665 mmHg 40%
    19:00 +28°C° 0 mm 7 mps 665 mmHg 47%
    20:00 +26°C° 0 mm 8 mps 666 mmHg 55%
    21:00 +23°C° 0 mm 8 mps 666 mmHg 60%
    22:00 +21°C° 0 mm 8 mps 666 mmHg 66%
    23:00 +20°C° 0 mm 7 mps 666 mmHg 72%

    19 October, Friday

    Time Temperature Precipitation Wind Pressure Humidity
    00:00 +18°C° 0 mm 7 mps 666 mmHg 74%
    01:00 +18°C° 0 mm 7 mps 666 mmHg 76%
    02:00 +18°C° 0 mm 7 mps 665 mmHg 78%
    03:00 +17°C° 0 mm 6 mps 665 mmHg 79%
    04:00 +17°C° 0 mm 6 mps 666 mmHg 80%
    05:00 +17°C° 0 mm 5 mps 666 mmHg 82%
    06:00 +19°C° 0 mm 6 mps 666 mmHg 77%
    07:00 +20°C° 0 mm 6 mps 667 mmHg 73%
    08:00 +21°C° 0 mm 6 mps 668 mmHg 68%
    09:00 +25°C° 0 mm 5 mps 668 mmHg 58%
    10:00 +27°C° 0 mm 5 mps 668 mmHg 49%
    11:00 +30°C° 0 mm 5 mps 669 mmHg 39%
    12:00 +33°C° 0 mm 5 mps 668 mmHg 35%
    13:00 +34°C° 0 mm 4 mps 667 mmHg 30%
    14:00 +36°C° 0 mm 4 mps 667 mmHg 26%
    15:00 +36°C° 0 mm 4 mps 666 mmHg 25%
    16:00 +36°C° 0 mm 4 mps 666 mmHg 24%
    17:00 +36°C° 0 mm 4 mps 666 mmHg 23%
    18:00 +34°C° 0 mm 4 mps 666 mmHg 28%
    19:00 +32°C° 0 mm 5 mps 666 mmHg 32%
    20:00 +29°C° 0 mm 5 mps 667 mmHg 37%
    21:00 +28°C° 0 mm 5 mps 667 mmHg 39%
    22:00 +27°C° 0 mm 5 mps 667 mmHg 42%
    23:00 +26°C° 0 mm 5 mps 667 mmHg 44%

    20 October, Saturday

    Time Temperature Precipitation Wind Pressure Humidity
    00:00 +26°C° 0 mm 5 mps 666 mmHg 47%
    01:00 +25°C° 0 mm 5 mps 666 mmHg 50%
    02:00 +23°C° 0 mm 5 mps 665 mmHg 53%
    03:00 +23°C° 0 mm 5 mps 665 mmHg 57%
    04:00 +22°C° 0 mm 5 mps 665 mmHg 60%
    05:00 +21°C° 0 mm 5 mps 665 mmHg 63%
    06:00 +23°C° 0 mm 5 mps 666 mmHg 59%
    07:00 +25°C° 0 mm 5 mps 667 mmHg 55%
    08:00 +26°C° 0 mm 5 mps 667 mmHg 51%
    09:00 +29°C° 0 mm 5 mps 668 mmHg 42%
    10:00 +33°C° 0 mm 5 mps 668 mmHg 33%
    11:00 +36°C° 0 mm 5 mps 668 mmHg 25%
    12:00 +37°C° 0 mm 5 mps 668 mmHg 22%
    13:00 +38°C° 0 mm 4 mps 667 mmHg 20%
    14:00 +40°C° 0 mm 4 mps 666 mmHg 17%
    15:00 +36°C° 1.5 mm 5 mps 666 mmHg 27%
    16:00 +33°C° 1.5 mm 7 mps 665 mmHg 36%
    17:00 +29°C° 1.5 mm 8 mps 664 mmHg 46%
    18:00 +28°C° 1.2 mm 8 mps 665 mmHg 46%
    19:00 +27°C° 1.2 mm 8 mps 666 mmHg 46%
    20:00 +26°C° 1.2 mm 8 mps 666 mmHg 46%
    21:00 +26°C° 0.8 mm 8 mps 666 mmHg 48%
    22:00 +26°C° 0.8 mm 7 mps 666 mmHg 51%
    23:00 +24°C° 0.8 mm 7 mps 667 mmHg 53%

    21 October, Sunday

    Time Temperature Precipitation Wind Pressure Humidity
    00:00 +23°C° 0.6 mm 7 mps 667 mmHg 60%
    01:00 +22°C° 0.6 mm 8 mps 667 mmHg 67%
    02:00 +21°C° 0.6 mm 9 mps 667 mmHg 74%
    03:00 +19°C° 0.9 mm 9 mps 667 mmHg 75%
    04:00 +18°C° 0.9 mm 9 mps 668 mmHg 75%
    05:00 +17°C° 0.9 mm 9 mps 668 mmHg 75%
    06:00 +17°C° 0.5 mm 9 mps 669 mmHg 74%
    07:00 +16°C° 0.5 mm 10 mps 669 mmHg 74%
    08:00 +16°C° 0.5 mm 10 mps 670 mmHg 73%
    09:00 +16°C° 0 mm 10 mps 670 mmHg 71%
    10:00 +14°C° 0 mm 10 mps 670 mmHg 68%
    11:00 +14°C° 0 mm 11 mps 670 mmHg 66%
    12:00 +16°C° 0.1 mm 10 mps 670 mmHg 62%
    13:00 +16°C° 0.1 mm 10 mps 671 mmHg 57%
    14:00 +17°C° 0.1 mm 10 mps 671 mmHg 52%
    15:00 +16°C° 0 mm 10 mps 671 mmHg 47%
    16:00 +16°C° 0 mm 10 mps 671 mmHg 42%
    17:00 +16°C° 0 mm 10 mps 671 mmHg 37%
    18:00 +14°C° 0 mm 10 mps 670 mmHg 38%
    19:00 +13°C° 0 mm 11 mps 670 mmHg 40%
    20:00 +11°C° 0 mm 11 mps 670 mmHg 42%
    21:00 +11°C° 0 mm 10 mps 670 mmHg 45%
    22:00 +11°C° 0 mm 10 mps 671 mmHg 47%
    23:00 +10°C° 0 mm 9 mps 671 mmHg 50%
    Show more